EZY82KI LOWI-EGKK

Flight info

Callsign EZY82KI
Flight time 1h 35m
Altitude 32000
Route KPT L856 RAVED Y112 HOC DCT LUL/N0445F380 DCT RLP DCT ROTSI DCT KOTUN DCT NINAL DCT KESAX DCT KUNAV
Aircraft A320/M-SDE3FGHIRWY/LB1

Departure

Time 2026-05-06 20:05
Airport Innsbruck Airport (LOWI)

Arrival

Time 2026-05-06 21:41
Airport London Gatwick Airport (EGKK)
Time Latitude Longitude Altitude Speed Heading
2026-05-06 19:34 47.25789 11.34753 1894 ft 0 kts 171°
2026-05-06 19:34 47.25789 11.34752 1895 ft 0 kts 172°
2026-05-06 19:56 47.25794 11.34751 1887 ft 3 kts 172°
2026-05-06 19:57 47.25814 11.34747 1897 ft 3 kts 172°
2026-05-06 19:57 47.25831 11.34743 1890 ft 3 kts 192°
2026-05-06 19:57 47.25844 11.34754 1890 ft 3 kts 248°
2026-05-06 19:57 47.25850 11.34782 1892 ft 3 kts 261°
2026-05-06 19:58 47.25852 11.34810 1897 ft 1 kts 261°
2026-05-06 19:58 47.25853 11.34811 1897 ft 0 kts 261°
2026-05-06 20:00 47.25849 11.34781 1890 ft 6 kts 261°
2026-05-06 20:00 47.25844 11.34729 1896 ft 5 kts 261°
2026-05-06 20:00 47.25835 11.34652 1898 ft 8 kts 261°
2026-05-06 20:01 47.25827 11.34573 1904 ft 7 kts 261°
2026-05-06 20:01 47.25819 11.34505 1894 ft 7 kts 261°
2026-05-06 20:01 47.25809 11.34408 1898 ft 11 kts 261°
2026-05-06 20:01 47.25798 11.34310 1904 ft 9 kts 261°
2026-05-06 20:02 47.25789 11.34226 1904 ft 8 kts 261°
2026-05-06 20:02 47.25778 11.34127 1892 ft 14 kts 261°
2026-05-06 20:02 47.25775 11.33983 1904 ft 13 kts 281°
2026-05-06 20:02 47.25813 11.33871 1893 ft 12 kts 306°
2026-05-06 20:03 47.25858 11.33780 1899 ft 10 kts 306°
2026-05-06 20:03 47.25898 11.33700 1904 ft 9 kts 306°
2026-05-06 20:03 47.25929 11.33626 1899 ft 9 kts 287°
2026-05-06 20:03 47.25923 11.33499 1904 ft 14 kts 261°
2026-05-06 20:04 47.25909 11.33370 1898 ft 12 kts 261°
2026-05-06 20:04 47.25884 11.33233 1899 ft 12 kts 229°
2026-05-06 20:04 47.25838 11.33134 1901 ft 12 kts 257°
2026-05-06 20:04 47.25878 11.33094 1899 ft 8 kts 42°
2026-05-06 20:05 47.25882 11.33116 1900 ft 0 kts 80°
2026-05-06 20:05 47.25920 11.33463 1892 ft 80 kts 81°
2026-05-06 20:05 47.26048 11.34687 1940 ft 154 kts 83°
2026-05-06 20:05 47.26210 11.36297 2705 ft 165 kts 82°
2026-05-06 20:06 47.26383 11.38007 3639 ft 171 kts 81°
2026-05-06 20:06 47.26560 11.39730 4594 ft 167 kts 83°
2026-05-06 20:06 47.26727 11.41344 5326 ft 161 kts 83°
2026-05-06 20:06 47.26895 11.42990 5843 ft 165 kts 84°
2026-05-06 20:07 47.27119 11.44664 6355 ft 169 kts 73°
2026-05-06 20:07 47.27543 11.46308 6855 ft 173 kts 72°
2026-05-06 20:07 47.27988 11.47957 7373 ft 174 kts 69°
2026-05-06 20:07 47.28468 11.49641 7753 ft 187 kts 70°
2026-05-06 20:08 47.28983 11.51451 8220 ft 194 kts 70°
2026-05-06 20:08 47.29510 11.53303 8785 ft 198 kts 70°
2026-05-06 20:08 47.30045 11.55183 9366 ft 201 kts 70°
2026-05-06 20:08 47.30587 11.57088 9918 ft 203 kts 71°
2026-05-06 20:09 47.31129 11.58994 10410 ft 206 kts 71°
2026-05-06 20:09 47.31596 11.60992 10888 ft 206 kts 88°
2026-05-06 20:09 47.31400 11.63016 11350 ft 198 kts 124°
2026-05-06 20:09 47.30494 11.64428 11832 ft 188 kts 159°
2026-05-06 20:10 47.29262 11.64833 12337 ft 180 kts 189°
2026-05-06 20:10 47.28104 11.64229 12817 ft 179 kts 217°
2026-05-06 20:10 47.27299 11.62780 13104 ft 196 kts 246°
2026-05-06 20:10 47.27227 11.60655 13302 ft 229 kts 283°
2026-05-06 20:11 47.27941 11.58385 13518 ft 258 kts 293°
2026-05-06 20:11 47.28844 11.55999 13776 ft 282 kts 295°
2026-05-06 20:11 47.29874 11.53396 14004 ft 306 kts 296°
2026-05-06 20:11 47.30992 11.50591 14194 ft 329 kts 296°
2026-05-06 20:12 47.32174 11.47606 14640 ft 342 kts 296°
2026-05-06 20:12 47.33375 11.44551 15143 ft 347 kts 295°
2026-05-06 20:12 47.34587 11.41441 15805 ft 352 kts 295°
2026-05-06 20:12 47.35808 11.38276 16431 ft 358 kts 295°
2026-05-06 20:13 47.37038 11.35060 16991 ft 362 kts 294°
2026-05-06 20:13 47.38276 11.31813 17592 ft 364 kts 295°
2026-05-06 20:13 47.39522 11.28544 18258 ft 368 kts 295°
2026-05-06 20:13 47.40764 11.25273 18829 ft 372 kts 295°
2026-05-06 20:14 47.42036 11.21924 19398 ft 376 kts 295°
2026-05-06 20:14 47.43320 11.18543 20042 ft 379 kts 295°
2026-05-06 20:14 47.44612 11.15140 20622 ft 381 kts 295°
2026-05-06 20:14 47.45915 11.11713 21179 ft 384 kts 295°
2026-05-06 20:15 47.47230 11.08252 21734 ft 388 kts 295°
2026-05-06 20:15 47.48552 11.04759 22311 ft 392 kts 295°
2026-05-06 20:15 47.49885 11.01222 22901 ft 395 kts 294°
2026-05-06 20:15 47.51228 10.97653 23457 ft 399 kts 294°
2026-05-06 20:16 47.52563 10.94109 23914 ft 401 kts 294°
2026-05-06 20:16 47.53925 10.90492 24447 ft 404 kts 294°
2026-05-06 20:16 47.55297 10.86844 24903 ft 407 kts 294°
2026-05-06 20:16 47.56674 10.83178 25380 ft 408 kts 294°
2026-05-06 20:17 47.58052 10.79496 25843 ft 409 kts 293°
2026-05-06 20:17 47.59434 10.75800 26321 ft 411 kts 293°
2026-05-06 20:17 47.60821 10.72090 26768 ft 412 kts 293°
2026-05-06 20:17 47.62214 10.68366 27230 ft 414 kts 293°
2026-05-06 20:18 47.63591 10.64675 27665 ft 415 kts 292°
2026-05-06 20:18 47.64987 10.60926 28113 ft 416 kts 292°
2026-05-06 20:18 47.66388 10.57154 28538 ft 418 kts 292°
2026-05-06 20:18 47.67787 10.53373 29004 ft 419 kts 291°
2026-05-06 20:19 47.69190 10.49573 29419 ft 420 kts 291°
2026-05-06 20:19 47.70595 10.45762 29815 ft 422 kts 291°
2026-05-06 20:19 47.72008 10.41934 30157 ft 423 kts 291°
2026-05-06 20:19 47.73275 10.38014 30440 ft 419 kts 283°
2026-05-06 20:20 47.74085 10.33896 30706 ft 413 kts 275°
2026-05-06 20:20 47.74420 10.29691 30957 ft 408 kts 266°
2026-05-06 20:20 47.74370 10.25542 31176 ft 408 kts 263°
2026-05-06 20:20 47.74269 10.21317 31419 ft 411 kts 263°
2026-05-06 20:21 47.74171 10.17065 31688 ft 412 kts 263°
2026-05-06 20:21 47.74076 10.12811 31922 ft 411 kts 263°
2026-05-06 20:21 47.73987 10.08642 31920 ft 395 kts 263°
2026-05-06 20:21 47.74084 10.04605 31922 ft 392 kts 274°
2026-05-06 20:22 47.74899 10.00708 31931 ft 399 kts 286°
2026-05-06 20:22 47.75970 9.96963 31924 ft 399 kts 286°
2026-05-06 20:22 47.78167 9.89390 31929 ft 399 kts 287°
2026-05-06 20:23 47.80366 9.81817 31930 ft 399 kts 286°
2026-05-06 20:23 47.82561 9.74204 31951 ft 401 kts 286°
2026-05-06 20:24 47.84759 9.66553 31919 ft 403 kts 286°
2026-05-06 20:24 47.86950 9.58916 31900 ft 404 kts 286°
2026-05-06 20:25 47.89151 9.51207 31896 ft 405 kts 286°
2026-05-06 20:25 47.91345 9.43475 31901 ft 405 kts 286°
2026-05-06 20:26 47.93535 9.35732 31893 ft 405 kts 286°
2026-05-06 20:26 47.95713 9.28036 31911 ft 406 kts 287°
2026-05-06 20:27 47.97908 9.20268 31905 ft 406 kts 287°
2026-05-06 20:27 48.00095 9.12483 31902 ft 407 kts 287°
2026-05-06 20:28 48.02273 9.04687 31903 ft 407 kts 286°
2026-05-06 20:28 48.04435 8.96930 31903 ft 407 kts 286°
2026-05-06 20:29 48.06606 8.89109 31909 ft 408 kts 288°
2026-05-06 20:29 48.08784 8.81258 31899 ft 409 kts 288°
2026-05-06 20:30 48.12046 8.69451 31894 ft 410 kts 288°
2026-05-06 20:31 48.14202 8.61609 31894 ft 410 kts 288°
2026-05-06 20:31 48.16366 8.53696 31899 ft 411 kts 289°
2026-05-06 20:32 48.18529 8.45764 31899 ft 412 kts 289°
2026-05-06 20:32 48.20703 8.37813 31895 ft 413 kts 289°
2026-05-06 20:33 48.22873 8.29832 31891 ft 413 kts 289°
2026-05-06 20:33 48.25018 8.21899 31899 ft 413 kts 289°
2026-05-06 20:34 48.27174 8.13903 31900 ft 413 kts 289°
2026-05-06 20:34 48.29317 8.05896 31903 ft 413 kts 289°
2026-05-06 20:35 48.31453 7.97885 31902 ft 413 kts 289°
2026-05-06 20:35 48.33576 7.89924 31905 ft 413 kts 289°
2026-05-06 20:36 48.35711 7.81902 31909 ft 413 kts 289°
2026-05-06 20:36 48.37837 7.73875 31922 ft 413 kts 290°
2026-05-06 20:37 48.39962 7.65833 31895 ft 414 kts 290°
2026-05-06 20:37 48.42087 7.57771 31892 ft 415 kts 290°
2026-05-06 20:38 48.44191 7.49740 31880 ft 415 kts 290°
2026-05-06 20:38 48.46301 7.41645 31883 ft 416 kts 290°
2026-05-06 20:38 48.47124 7.37424 31901 ft 425 kts 278°
2026-05-06 20:39 48.47470 7.32964 31907 ft 434 kts 274°
2026-05-06 20:39 48.48002 7.23731 31905 ft 447 kts 273°
2026-05-06 20:40 48.48523 7.14447 31911 ft 448 kts 273°
2026-05-06 20:40 48.49033 7.05084 31907 ft 448 kts 273°
2026-05-06 20:41 48.49554 6.95719 31917 ft 449 kts 273°
2026-05-06 20:41 48.50045 6.86340 31919 ft 449 kts 274°
2026-05-06 20:41 48.50554 6.81708 31907 ft 450 kts 287°
2026-05-06 20:42 48.51886 6.77555 31914 ft 442 kts 306°
2026-05-06 20:42 48.53756 6.73982 31907 ft 428 kts 308°
2026-05-06 20:42 48.55609 6.70517 31908 ft 422 kts 308°
2026-05-06 20:43 48.59285 6.63641 31910 ft 420 kts 308°
2026-05-06 20:43 48.62951 6.56781 31910 ft 419 kts 308°
2026-05-06 20:44 48.66616 6.49919 31921 ft 419 kts 308°
2026-05-06 20:44 48.70246 6.43119 31913 ft 418 kts 308°
2026-05-06 20:45 48.73259 6.35693 31913 ft 415 kts 288°
2026-05-06 20:45 48.75202 6.27442 31910 ft 416 kts 290°
2026-05-06 20:46 48.77308 6.19268 31904 ft 417 kts 290°
2026-05-06 20:46 48.79393 6.11068 31908 ft 417 kts 290°
2026-05-06 20:47 48.81409 6.02901 31919 ft 416 kts 290°
2026-05-06 20:47 48.83412 5.94674 31917 ft 415 kts 290°
2026-05-06 20:48 48.85401 5.86447 31917 ft 415 kts 289°
2026-05-06 20:48 48.87391 5.78222 31912 ft 415 kts 290°
2026-05-06 20:49 48.89369 5.70057 31913 ft 415 kts 290°
2026-05-06 20:49 48.91359 5.61846 31922 ft 414 kts 289°
2026-05-06 20:50 48.93331 5.53638 31924 ft 413 kts 289°
2026-05-06 20:50 48.95289 5.45435 31928 ft 412 kts 289°
2026-05-06 20:51 48.97241 5.37226 31925 ft 412 kts 289°
2026-05-06 20:51 48.99178 5.29080 31911 ft 412 kts 289°
2026-05-06 20:52 49.01124 5.20877 31927 ft 411 kts 289°
2026-05-06 20:52 49.03054 5.12692 31931 ft 410 kts 289°
2026-05-06 20:53 49.04980 5.04523 31936 ft 409 kts 289°
2026-05-06 20:53 49.06873 4.96409 31929 ft 409 kts 288°
2026-05-06 20:54 49.08766 4.88240 31921 ft 408 kts 289°
2026-05-06 20:54 49.10656 4.80079 31926 ft 407 kts 289°
2026-05-06 20:55 49.12538 4.71935 31924 ft 407 kts 289°
2026-05-06 20:55 49.14418 4.63797 31937 ft 406 kts 289°
2026-05-06 20:56 49.16276 4.55723 31942 ft 405 kts 289°
2026-05-06 20:56 49.18143 4.47593 31924 ft 405 kts 289°
2026-05-06 20:57 49.19995 4.39463 31925 ft 405 kts 289°
2026-05-06 20:57 49.21840 4.31318 31926 ft 405 kts 289°
2026-05-06 20:58 49.23667 4.23225 31931 ft 405 kts 289°
2026-05-06 20:58 49.25504 4.15071 31936 ft 405 kts 289°
2026-05-06 20:59 49.27330 4.06925 31944 ft 404 kts 288°
2026-05-06 20:59 49.29147 3.98777 31943 ft 404 kts 288°
2026-05-06 21:00 49.30961 3.90620 31944 ft 404 kts 288°
2026-05-06 21:00 49.32761 3.82520 31947 ft 404 kts 288°
2026-05-06 21:01 49.34565 3.74359 31945 ft 404 kts 288°
2026-05-06 21:01 49.36356 3.66192 31940 ft 404 kts 288°
2026-05-06 21:02 49.38149 3.58030 31948 ft 404 kts 288°
2026-05-06 21:02 49.39924 3.49911 31940 ft 404 kts 288°
2026-05-06 21:03 49.41698 3.41724 31961 ft 404 kts 288°
2026-05-06 21:03 49.43475 3.33525 31958 ft 405 kts 288°
2026-05-06 21:04 49.45250 3.25321 31955 ft 405 kts 288°
2026-05-06 21:04 49.46997 3.17162 31971 ft 404 kts 288°
2026-05-06 21:05 49.48756 3.08950 31953 ft 404 kts 288°
2026-05-06 21:05 49.50512 3.00730 31973 ft 404 kts 288°
2026-05-06 21:06 49.52257 2.92511 31967 ft 404 kts 288°
2026-05-06 21:06 49.53990 2.84281 31961 ft 404 kts 288°
2026-05-06 21:07 49.55712 2.76108 31965 ft 404 kts 288°
2026-05-06 21:07 49.57441 2.67866 31961 ft 404 kts 289°
2026-05-06 21:08 49.59161 2.59622 31973 ft 404 kts 288°
2026-05-06 21:08 49.61420 2.51754 31984 ft 402 kts 304°
2026-05-06 21:09 49.64937 2.45071 31978 ft 401 kts 311°
2026-05-06 21:09 49.68555 2.38522 31978 ft 401 kts 310°
2026-05-06 21:10 49.72128 2.31993 31970 ft 401 kts 310°
2026-05-06 21:10 49.75729 2.25418 31959 ft 400 kts 310°
2026-05-06 21:11 49.79321 2.18836 31971 ft 400 kts 310°
2026-05-06 21:11 49.82908 2.12245 31971 ft 400 kts 310°
2026-05-06 21:12 49.86489 2.05646 31968 ft 400 kts 310°
2026-05-06 21:12 49.90046 1.99085 31978 ft 400 kts 310°
2026-05-06 21:13 49.93627 1.92456 31657 ft 400 kts 310°
2026-05-06 21:13 49.95411 1.89149 31396 ft 398 kts 310°
2026-05-06 21:13 49.97187 1.85853 31130 ft 397 kts 309°
2026-05-06 21:13 49.98958 1.82568 30896 ft 396 kts 309°
2026-05-06 21:14 50.00722 1.79291 30643 ft 394 kts 309°
2026-05-06 21:14 50.02450 1.76076 30391 ft 392 kts 309°
2026-05-06 21:14 50.04195 1.72824 30147 ft 391 kts 309°
2026-05-06 21:14 50.05931 1.69578 29876 ft 389 kts 309°
2026-05-06 21:15 50.07765 1.66498 29577 ft 388 kts 317°
2026-05-06 21:15 50.09797 1.63739 29290 ft 387 kts 318°
2026-05-06 21:15 50.11830 1.60997 29009 ft 385 kts 318°
2026-05-06 21:15 50.13847 1.58265 28723 ft 384 kts 318°
2026-05-06 21:16 50.15855 1.55539 28451 ft 382 kts 318°
2026-05-06 21:16 50.17855 1.52818 28177 ft 381 kts 317°
2026-05-06 21:16 50.19818 1.50143 27917 ft 378 kts 317°
2026-05-06 21:16 50.21793 1.47449 27648 ft 375 kts 317°
2026-05-06 21:17 50.23739 1.44789 27251 ft 370 kts 317°
2026-05-06 21:17 50.25669 1.42148 26819 ft 367 kts 317°
2026-05-06 21:17 50.27580 1.39538 26452 ft 362 kts 317°
2026-05-06 21:17 50.29438 1.37001 26128 ft 348 kts 317°
2026-05-06 21:18 50.31246 1.34523 25549 ft 343 kts 317°
2026-05-06 21:18 50.33034 1.32068 25110 ft 341 kts 317°
2026-05-06 21:18 50.34845 1.29581 24672 ft 354 kts 317°
2026-05-06 21:18 50.36689 1.27039 24201 ft 360 kts 317°
2026-05-06 21:19 50.38567 1.24448 23728 ft 359 kts 317°
2026-05-06 21:19 50.40437 1.21877 23190 ft 355 kts 317°
2026-05-06 21:19 50.42279 1.19344 22719 ft 351 kts 317°
2026-05-06 21:19 50.44109 1.16820 22245 ft 350 kts 317°
2026-05-06 21:20 50.45928 1.14301 21777 ft 348 kts 317°
2026-05-06 21:20 50.47125 1.12637 21476 ft 346 kts 317°
2026-05-06 21:20 50.49523 1.09295 20870 ft 343 kts 317°
2026-05-06 21:20 50.51304 1.06813 20418 ft 341 kts 316°
2026-05-06 21:21 50.52921 1.04179 19988 ft 339 kts 312°
2026-05-06 21:21 50.54528 1.01478 19538 ft 337 kts 312°
2026-05-06 21:21 50.56125 0.98788 19103 ft 336 kts 312°
2026-05-06 21:21 50.57716 0.96109 18668 ft 335 kts 312°
2026-05-06 21:22 50.59303 0.93430 18225 ft 334 kts 312°
2026-05-06 21:22 50.60880 0.90760 17752 ft 332 kts 312°
2026-05-06 21:22 50.62444 0.88105 17338 ft 329 kts 312°
2026-05-06 21:22 50.63473 0.86361 17061 ft 328 kts 312°
2026-05-06 21:23 50.65520 0.82896 16521 ft 324 kts 312°
2026-05-06 21:23 50.67033 0.80332 16357 ft 315 kts 312°
2026-05-06 21:23 50.68288 0.77601 16259 ft 302 kts 295°
2026-05-06 21:23 50.69121 0.74627 16179 ft 292 kts 293°
2026-05-06 21:24 50.69952 0.71586 16043 ft 308 kts 293°
2026-05-06 21:24 50.70514 0.69520 16001 ft 311 kts 293°
2026-05-06 21:24 50.71369 0.66372 16011 ft 313 kts 293°
2026-05-06 21:24 50.72226 0.63213 16016 ft 313 kts 293°
2026-05-06 21:25 50.73083 0.60052 16015 ft 314 kts 293°
2026-05-06 21:25 50.74218 0.55857 16016 ft 313 kts 293°
2026-05-06 21:25 50.75072 0.52690 16014 ft 313 kts 293°
2026-05-06 21:25 50.75927 0.49525 16016 ft 313 kts 293°
2026-05-06 21:26 50.76492 0.47429 16016 ft 313 kts 293°
2026-05-06 21:26 50.77342 0.44269 16013 ft 310 kts 293°
2026-05-06 21:26 50.78464 0.40088 16016 ft 308 kts 293°
2026-05-06 21:26 50.79017 0.38026 16015 ft 308 kts 293°
2026-05-06 21:27 50.79853 0.34912 16018 ft 308 kts 293°
2026-05-06 21:27 50.80957 0.30788 16018 ft 308 kts 293°
2026-05-06 21:27 50.81519 0.28682 16018 ft 308 kts 293°
2026-05-06 21:27 50.82346 0.25578 15808 ft 305 kts 293°
2026-05-06 21:28 50.83168 0.22494 15438 ft 304 kts 293°
2026-05-06 21:28 50.83976 0.19463 15081 ft 302 kts 293°
2026-05-06 21:28 50.84788 0.16405 14729 ft 301 kts 293°
2026-05-06 21:28 50.85597 0.13357 14394 ft 299 kts 293°
2026-05-06 21:29 50.86402 0.10329 14044 ft 298 kts 293°
2026-05-06 21:29 50.87202 0.07311 13691 ft 297 kts 293°
2026-05-06 21:29 50.87996 0.04308 13322 ft 295 kts 293°
2026-05-06 21:29 50.88785 0.01319 12951 ft 293 kts 293°
2026-05-06 21:30 50.89570 -0.01654 12577 ft 292 kts 293°
2026-05-06 21:30 50.90351 -0.04609 12204 ft 290 kts 293°
2026-05-06 21:30 50.91115 -0.07515 11841 ft 289 kts 293°
2026-05-06 21:30 50.91883 -0.10439 11486 ft 286 kts 293°
2026-05-06 21:31 50.92634 -0.13302 11359 ft 276 kts 293°
2026-05-06 21:31 50.93361 -0.16068 11218 ft 267 kts 293°
2026-05-06 21:31 50.94059 -0.18734 11102 ft 258 kts 293°
2026-05-06 21:31 50.94736 -0.21322 10905 ft 252 kts 293°
2026-05-06 21:32 50.95401 -0.23878 10625 ft 250 kts 293°
2026-05-06 21:32 50.96707 -0.28899 9878 ft 245 kts 293°
2026-05-06 21:32 50.97355 -0.31395 9300 ft 244 kts 293°
2026-05-06 21:33 50.97998 -0.33873 8723 ft 242 kts 293°
2026-05-06 21:33 50.98635 -0.36327 8171 ft 239 kts 293°
2026-05-06 21:33 50.99269 -0.38764 7657 ft 239 kts 293°
2026-05-06 21:33 50.99899 -0.41193 7337 ft 237 kts 293°
2026-05-06 21:34 51.00512 -0.43618 7005 ft 236 kts 291°
2026-05-06 21:34 51.01093 -0.46040 6674 ft 234 kts 292°
2026-05-06 21:34 51.01989 -0.48129 6435 ft 226 kts 322°
2026-05-06 21:34 51.03339 -0.49087 6301 ft 208 kts 347°
2026-05-06 21:35 51.04717 -0.49490 6026 ft 199 kts 351°
2026-05-06 21:35 51.06092 -0.49818 5535 ft 200 kts 351°
2026-05-06 21:35 51.07465 -0.50137 5092 ft 199 kts 351°
2026-05-06 21:35 51.08840 -0.50265 4639 ft 198 kts 12°
2026-05-06 21:36 51.10072 -0.49321 4122 ft 201 kts 41°
2026-05-06 21:36 51.10830 -0.47486 3702 ft 199 kts 72°
2026-05-06 21:36 51.11138 -0.45381 3417 ft 192 kts 76°
2026-05-06 21:36 51.11420 -0.43370 3198 ft 181 kts 76°
2026-05-06 21:37 51.11693 -0.41435 2913 ft 177 kts 76°
2026-05-06 21:37 51.11957 -0.39551 2661 ft 172 kts 76°
2026-05-06 21:37 51.12209 -0.37749 2421 ft 165 kts 75°
2026-05-06 21:37 51.12454 -0.35997 2207 ft 161 kts 75°
2026-05-06 21:38 51.12695 -0.34279 1990 ft 154 kts 75°
2026-05-06 21:38 51.12918 -0.32676 1783 ft 143 kts 75°
2026-05-06 21:38 51.13130 -0.31159 1586 ft 139 kts 74°
2026-05-06 21:38 51.13338 -0.29667 1398 ft 138 kts 75°
2026-05-06 21:39 51.13545 -0.28183 1209 ft 137 kts 75°
2026-05-06 21:39 51.13750 -0.26704 1019 ft 137 kts 76°
2026-05-06 21:39 51.13956 -0.25224 822 ft 137 kts 77°
2026-05-06 21:39 51.14160 -0.23768 638 ft 137 kts 77°
2026-05-06 21:40 51.14363 -0.22291 449 ft 135 kts 78°
2026-05-06 21:40 51.14569 -0.20833 270 ft 135 kts 77°
2026-05-06 21:40 51.14754 -0.19465 208 ft 107 kts 78°
2026-05-06 21:40 51.14875 -0.18577 205 ft 55 kts 78°
2026-05-06 21:41 51.14931 -0.18190 210 ft 31 kts 77°
2026-05-06 21:41 51.15009 -0.17884 216 ft 27 kts 53°
2026-05-06 21:41 51.15086 -0.17760 207 ft 12 kts 23°
2026-05-06 21:41 51.15135 -0.17761 205 ft 0 kts 354°
2026-05-06 21:42 51.15155 -0.17764 205 ft 12 kts 354°
2026-05-06 21:43 51.15228 -0.17775 210 ft 10 kts
2026-05-06 21:43 51.15265 -0.17703 206 ft 9 kts 75°
2026-05-06 21:43 51.15279 -0.17609 204 ft 9 kts 78°
2026-05-06 21:43 51.15291 -0.17519 207 ft 8 kts 78°
2026-05-06 21:44 51.15302 -0.17431 210 ft 10 kts 79°
2026-05-06 21:44 51.15354 -0.17371 207 ft 10 kts 353°
2026-05-06 21:44 51.15421 -0.17395 204 ft 9 kts 347°
2026-05-06 21:44 51.15481 -0.17416 204 ft 9 kts 348°
2026-05-06 21:45 51.15532 -0.17452 210 ft 8 kts 311°
2026-05-06 21:45 51.15536 -0.17527 204 ft 7 kts 259°
2026-05-06 21:45 51.15526 -0.17597 207 ft 6 kts 257°
2026-05-06 21:45 51.15498 -0.17624 207 ft 5 kts 179°
2026-05-06 21:46 51.15467 -0.17616 208 ft 4 kts 168°
2026-05-06 21:46 51.15447 -0.17609 213 ft 0 kts 167°